User: anonymous   Login
Location: Borgo
(42.3939°N, 9.2791°E)
Time: 09:51:42
(UTC+00:00)
Language:

Cosmos 2058 Rocket - Orbit

View from above orbital plane
View from above orbital plane
View from above satellite
View from above satellite

Ground track
Ground track

The orbit data is extracted from the following two-line orbital elements,

1 20466U 90010B   21102.83763726  .00000090  00000-0  84496-5 0  9991
2 20466  82.5021 146.6032 0022044  75.2958 285.0697 14.81418275684116
Epoch (UTC): 12 April 2021 20:06:11
Eccentricity: 0.0022044
inclination: 82.5021°
perigee height: 609 km
apogee height: 640 km
right ascension of ascending node: 146.6032°
argument of perigee: 75.2958°
revolutions per day: 14.81418275
mean anomaly at epoch: 285.0697°
orbit number at epoch: 68411

The dashed part of the orbit path shows where the satellite is in the earth's shadow,  

DLR